Location: Bussy-Saint-Georges
(48.8410°N, 2.7017°E)
Time: 22:43:03
(UTC+00:00)

Cosmos 1892 - Pass Details

Date: 18 October 2021
Orbit: 501 x 522 km, 82.5° (Epoch: 07 December)

Event Time Altitude Azimuth Distance (km) Brightness Sun altitude
Rises 18:46:43 0° 356° (N) 2,629 6.4 -19.3°
Reaches altitude 10° 18:48:58 10° 5° (N) 1,734 5.4 -19.7°
Enters shadow 18:50:50 24° 23° (NNE) 1,081 4.1 -20.0°
